sat.trackr.live / text

‹ back to catalog

STARLINK-11447 [DTC]

NORAD 62418 · 2024-249K

PAYLOAD ACTIVE UNKNOWN

§ Identity

Operator
Country
US
Launch date
2024-12-23
Launch site
AFETR
Launch vehicle
Mass (kg)
RCS (m²)

Purposes: comms

External: N2YO · Heavens-Above · Gunter

§ Orbital elements

Epoch: 2026-05-25T04:10:25.761792Z

Period
91.67 min
Inclination
43.0003°
Eccentricity
0.0001567
Mean motion
15.70893643 rev/d
Perigee alt
355.3 km
Apogee alt
357.4 km
Semi-major
6,734.5 km
B*
1.7945e-3
RAAN
66.2699°
Arg perigee
263.4260°
Mean anomaly
96.6429°
Rev number
8,151

§ Raw data

STARLINK-11447 [DTC]1 62418U 24249K   26145.17390928  .00237029  00000+0  17945-2 0  99992 62418  43.0003  66.2699 0001567 263.4260  96.6429 15.70893643 81510

JSON: /api/v1/satellites/62418 · /tle

For live sub-satellite position, see the globe view (requires WebGL).

§ Visibility from observer

Set your observer location to see the next 7 days of passes ≥ 10°. The values pass through the URL so the page stays shareable.

No JS? Fill the form by hand. The geolocation button needs JavaScript.